When you browse on this site, cookies collect data to enhance your experience and personalize the content and advertising you see.
Visit our Privacy Policy to learn more. By continuing to use the site, you agree to this use of cookies and data.
  • En España
  • Lista de países
  • Para 7 días
  • Temperatura del agua
  • El tiempo en el mapa
  • Informadores
  • user-avatar
    Iniciar sesión

    Tiempo cada hora Klagenfurt

    Hoy, 6 Abril, Lunes

    Tiempo Temperatura Precipitaciones Viento Presión Humedad
    00:00 +4°C° 0 mm 1 mps 695 mmHg 77%
    01:00 +4°C° 0 mm 1 mps 695 mmHg 78%
    02:00 +4°C° 0 mm 1 mps 695 mmHg 79%
    03:00 +4°C° 0 mm 1 mps 695 mmHg 80%
    04:00 +3°C° 0 mm 1 mps 694 mmHg 82%
    05:00 +4°C° 0 mm 1 mps 695 mmHg 79%
    06:00 +5°C° 0 mm 1 mps 695 mmHg 77%
    07:00 +6°C° 0 mm 1 mps 696 mmHg 74%
    08:00 +8°C° 0 mm 1 mps 696 mmHg 66%
    09:00 +10°C° 0 mm 1 mps 697 mmHg 58%
    10:00 +12°C° 0 mm 2 mps 697 mmHg 51%
    11:00 +13°C° 0 mm 2 mps 697 mmHg 48%
    12:00 +14°C° 0 mm 2 mps 697 mmHg 45%
    13:00 +15°C° 0 mm 2 mps 697 mmHg 43%
    14:00 +15°C° 0 mm 2 mps 697 mmHg 43%
    15:00 +14°C° 0 mm 2 mps 697 mmHg 44%
    16:00 +14°C° 0 mm 2 mps 697 mmHg 45%
    17:00 +12°C° 0 mm 2 mps 697 mmHg 53%
    18:00 +10°C° 0 mm 1 mps 696 mmHg 62%
    19:00 +7°C° 0 mm 1 mps 696 mmHg 70%
    20:00 +7°C° 0 mm 1 mps 697 mmHg 72%
    21:00 +6°C° 0 mm 1 mps 697 mmHg 73%
    22:00 +5°C° 0 mm 1 mps 698 mmHg 75%
    23:00 +4°C° 0 mm 1 mps 698 mmHg 76%

    Mañana, 7 Abril, Martes

    Tiempo Temperatura Precipitaciones Viento Presión Humedad
    00:00 +4°C° 0 mm 1 mps 698 mmHg 78%
    01:00 +3°C° 0 mm 1 mps 698 mmHg 79%
    02:00 +3°C° 0 mm 1 mps 698 mmHg 80%
    03:00 +3°C° 0 mm 1 mps 698 mmHg 81%
    04:00 +2°C° 0 mm 1 mps 698 mmHg 82%
    05:00 +3°C° 0 mm 1 mps 698 mmHg 78%
    06:00 +4°C° 0 mm 1 mps 698 mmHg 75%
    07:00 +4°C° 0 mm 1 mps 698 mmHg 71%
    08:00 +7°C° 0 mm 1 mps 698 mmHg 61%
    09:00 +9°C° 0 mm 1 mps 699 mmHg 51%
    10:00 +10°C° 0 mm 2 mps 699 mmHg 41%
    11:00 +13°C° 0 mm 2 mps 699 mmHg 37%
    12:00 +14°C° 0 mm 2 mps 699 mmHg 33%
    13:00 +15°C° 0 mm 2 mps 700 mmHg 30%
    14:00 +15°C° 0 mm 2 mps 699 mmHg 31%
    15:00 +15°C° 0 mm 2 mps 699 mmHg 32%
    16:00 +14°C° 0 mm 2 mps 699 mmHg 33%
    17:00 +12°C° 0 mm 2 mps 698 mmHg 42%
    18:00 +9°C° 0 mm 1 mps 698 mmHg 50%
    19:00 +7°C° 0 mm 1 mps 698 mmHg 59%
    20:00 +6°C° 0 mm 1 mps 698 mmHg 59%
    21:00 +5°C° 0 mm 1 mps 698 mmHg 59%
    22:00 +4°C° 0 mm 1 mps 698 mmHg 59%
    23:00 +4°C° 0 mm 1 mps 698 mmHg 59%

    Pasado mañana, 8 Abril, Miércoles

    Tiempo Temperatura Precipitaciones Viento Presión Humedad
    00:00 +3°C° 0 mm 1 mps 698 mmHg 60%
    01:00 +2°C° 0 mm 0 mps 698 mmHg 60%
    02:00 +2°C° 0 mm 0 mps 697 mmHg 61%
    03:00 +1°C° 0 mm 0 mps 697 mmHg 62%
    04:00 +1°C° 0 mm 0 mps 697 mmHg 63%
    05:00 +3°C° 0 mm 1 mps 697 mmHg 61%
    06:00 +4°C° 0 mm 1 mps 697 mmHg 58%
    07:00 +5°C° 0 mm 1 mps 697 mmHg 55%
    08:00 +7°C° 0 mm 1 mps 697 mmHg 48%
    09:00 +10°C° 0 mm 1 mps 697 mmHg 41%
    10:00 +12°C° 0 mm 1 mps 697 mmHg 34%
    11:00 +13°C° 0 mm 1 mps 697 mmHg 33%
    12:00 +14°C° 0 mm 1 mps 697 mmHg 32%
    13:00 +15°C° 0 mm 1 mps 697 mmHg 31%
    14:00 +15°C° 0 mm 1 mps 696 mmHg 32%
    15:00 +15°C° 0 mm 1 mps 696 mmHg 34%
    16:00 +15°C° 0 mm 1 mps 695 mmHg 35%
    17:00 +12°C° 0 mm 1 mps 695 mmHg 44%
    18:00 +10°C° 0 mm 1 mps 694 mmHg 53%
    19:00 +7°C° 0 mm 1 mps 694 mmHg 61%
    20:00 +7°C° 0 mm 1 mps 694 mmHg 62%
    21:00 +6°C° 0 mm 1 mps 694 mmHg 63%
    22:00 +6°C° 0 mm 1 mps 695 mmHg 64%
    23:00 +5°C° 0 mm 1 mps 694 mmHg 65%

    9 Abril, Jueves

    Tiempo Temperatura Precipitaciones Viento Presión Humedad
    00:00 +5°C° 0 mm 1 mps 694 mmHg 67%
    01:00 +3°C° 0 mm 0 mps 694 mmHg 68%
    02:00 +3°C° 0 mm 0 mps 694 mmHg 70%
    03:00 +3°C° 0 mm 0 mps 693 mmHg 71%
    04:00 +2°C° 0 mm 0 mps 693 mmHg 72%
    05:00 +3°C° 0 mm 0 mps 693 mmHg 69%
    06:00 +4°C° 0 mm 0 mps 693 mmHg 67%
    07:00 +5°C° 0 mm 0 mps 693 mmHg 64%
    08:00 +8°C° 0 mm 0 mps 694 mmHg 57%
    09:00 +12°C° 0 mm 1 mps 694 mmHg 49%
    10:00 +15°C° 0 mm 1 mps 695 mmHg 42%
    11:00 +16°C° 0 mm 1 mps 695 mmHg 39%
    12:00 +18°C° 0 mm 1 mps 695 mmHg 36%
    13:00 +19°C° 0 mm 1 mps 694 mmHg 33%
    14:00 +19°C° 0 mm 1 mps 694 mmHg 34%
    15:00 +19°C° 0 mm 1 mps 694 mmHg 35%
    16:00 +18°C° 0 mm 1 mps 693 mmHg 36%
    17:00 +15°C° 0 mm 1 mps 693 mmHg 44%
    18:00 +12°C° 0 mm 1 mps 693 mmHg 52%
    19:00 +10°C° 0 mm 1 mps 692 mmHg 61%
    20:00 +9°C° 0 mm 1 mps 693 mmHg 61%
    21:00 +9°C° 0 mm 1 mps 693 mmHg 62%
    22:00 +8°C° 0 mm 1 mps 693 mmHg 63%
    23:00 +7°C° 0 mm 0 mps 693 mmHg 64%

    10 Abril, Viernes

    Tiempo Temperatura Precipitaciones Viento Presión Humedad
    00:00 +7°C° 0 mm 0 mps 693 mmHg 66%
    01:00 +6°C° 0 mm 0 mps 693 mmHg 68%
    02:00 +6°C° 0 mm 0 mps 693 mmHg 70%
    03:00 +6°C° 0 mm 0 mps 693 mmHg 71%
    04:00 +7°C° 0 mm 1 mps 693 mmHg 73%
    05:00 +7°C° 0 mm 0 mps 693 mmHg 71%
    06:00 +8°C° 0 mm 0 mps 693 mmHg 69%
    07:00 +9°C° 0 mm 0 mps 694 mmHg 67%
    08:00 +12°C° 0 mm 1 mps 694 mmHg 60%
    09:00 +14°C° 0 mm 1 mps 694 mmHg 53%
    10:00 +18°C° 0 mm 1 mps 695 mmHg 46%
    11:00 +19°C° 0 mm 1 mps 694 mmHg 44%
    12:00 +19°C° 0 mm 1 mps 694 mmHg 42%
    13:00 +20°C° 0 mm 1 mps 694 mmHg 40%
    14:00 +20°C° 0 mm 1 mps 694 mmHg 41%
    15:00 +19°C° 0 mm 1 mps 693 mmHg 42%
    16:00 +19°C° 0 mm 1 mps 693 mmHg 43%
    17:00 +16°C° 0 mm 1 mps 692 mmHg 51%
    18:00 +14°C° 0 mm 1 mps 692 mmHg 59%
    19:00 +11°C° 0 mm 1 mps 691 mmHg 67%
    20:00 +11°C° 0 mm 1 mps 692 mmHg 69%
    21:00 +10°C° 0 mm 1 mps 692 mmHg 70%
    22:00 +10°C° 0 mm 1 mps 692 mmHg 71%
    23:00 +9°C° 0 mm 1 mps 692 mmHg 73%

    11 Abril, Sábado

    Tiempo Temperatura Precipitaciones Viento Presión Humedad
    00:00 +9°C° 0 mm 1 mps 691 mmHg 74%
    01:00 +8°C° 0 mm 1 mps 691 mmHg 76%
    02:00 +7°C° 0 mm 0 mps 691 mmHg 76%
    03:00 +7°C° 0 mm 0 mps 691 mmHg 77%
    04:00 +6°C° 0 mm 0 mps 691 mmHg 78%
    05:00 +7°C° 0 mm 0 mps 691 mmHg 75%
    06:00 +8°C° 0 mm 0 mps 691 mmHg 71%
    07:00 +9°C° 0 mm 0 mps 691 mmHg 68%
    08:00 +12°C° 0 mm 0 mps 691 mmHg 60%
    09:00 +15°C° 0 mm 1 mps 691 mmHg 52%
    10:00 +19°C° 0 mm 1 mps 691 mmHg 44%
    11:00 +19°C° 0 mm 1 mps 691 mmHg 42%
    12:00 +19°C° 0 mm 2 mps 691 mmHg 39%
    13:00 +20°C° 0 mm 2 mps 691 mmHg 36%
    14:00 +19°C° 0 mm 2 mps 690 mmHg 36%
    15:00 +19°C° 0 mm 3 mps 689 mmHg 37%
    16:00 +18°C° 0 mm 3 mps 689 mmHg 37%
    17:00 +14°C° 0 mm 3 mps 688 mmHg 46%
    18:00 +13°C° 0 mm 2 mps 688 mmHg 54%
    19:00 +9°C° 0 mm 2 mps 687 mmHg 63%
    20:00 +9°C° 0 mm 2 mps 687 mmHg 67%
    21:00 +8°C° 0 mm 2 mps 687 mmHg 70%
    22:00 +7°C° 0 mm 2 mps 687 mmHg 73%
    23:00 +8°C° 0 mm 1 mps 687 mmHg 75%
    Mostrar más